When you browse on this site, cookies collect data to enhance your experience and personalize the content and advertising you see.
Visit our Privacy Policy to learn more. By continuing to use the site, you agree to this use of cookies and data.
  • In United Kingdom
  • List of Countries
  • For 7 days
  • Water Temperature
  • Weather Map
  • Weather Widgets
  • user-avatar
    Login

    Hourly Weather Byala

    Today, 1 April, Wednesday

    Time Temperature Precipitation Wind Pressure Humidity
    00:00 -1°C° 0 mm 6 mps 754 mmHg 58%
    01:00 -1°C° 0 mm 6 mps 754 mmHg 55%
    02:00 -1°C° 0 mm 6 mps 754 mmHg 53%
    03:00 -1°C° 0 mm 7 mps 754 mmHg 54%
    04:00 -1°C° 0 mm 7 mps 754 mmHg 55%
    05:00 -1°C° 0 mm 8 mps 754 mmHg 56%
    06:00 -1°C° 0 mm 8 mps 754 mmHg 60%
    07:00 0°C° 0 mm 8 mps 754 mmHg 65%
    08:00 0°C° 0 mm 7 mps 754 mmHg 69%
    09:00 0°C° 0.1 mm 7 mps 754 mmHg 73%
    10:00 +2°C° 0.1 mm 7 mps 754 mmHg 77%
    11:00 +2°C° 0.1 mm 7 mps 755 mmHg 82%
    12:00 +2°C° 0.1 mm 7 mps 754 mmHg 82%
    13:00 +2°C° 0.1 mm 7 mps 754 mmHg 83%
    14:00 +1°C° 0.1 mm 8 mps 754 mmHg 84%
    15:00 +2°C° 0 mm 7 mps 754 mmHg 80%
    16:00 +2°C° 0 mm 7 mps 754 mmHg 76%
    17:00 +3°C° 0 mm 7 mps 753 mmHg 71%
    18:00 +2°C° 0 mm 7 mps 753 mmHg 72%
    19:00 0°C° 0 mm 7 mps 753 mmHg 73%
    20:00 0°C° 0 mm 7 mps 753 mmHg 75%
    21:00 +1°C° 0 mm 6 mps 753 mmHg 74%
    22:00 +1°C° 0 mm 6 mps 753 mmHg 73%
    23:00 +2°C° 0 mm 6 mps 753 mmHg 72%

    Tomorrow, 2 April, Thursday

    Time Temperature Precipitation Wind Pressure Humidity
    00:00 +1°C° 0 mm 6 mps 753 mmHg 73%
    01:00 +1°C° 0 mm 6 mps 752 mmHg 74%
    02:00 +1°C° 0 mm 6 mps 752 mmHg 76%
    03:00 +1°C° 0 mm 6 mps 752 mmHg 75%
    04:00 +1°C° 0 mm 6 mps 752 mmHg 74%
    05:00 +1°C° 0 mm 6 mps 752 mmHg 73%
    06:00 +2°C° 0 mm 6 mps 752 mmHg 71%
    07:00 +2°C° 0 mm 6 mps 752 mmHg 68%
    08:00 +3°C° 0 mm 6 mps 752 mmHg 66%
    09:00 +4°C° 0 mm 7 mps 752 mmHg 68%
    10:00 +4°C° 0 mm 7 mps 751 mmHg 70%
    11:00 +5°C° 0 mm 8 mps 751 mmHg 72%
    12:00 +5°C° 0 mm 8 mps 751 mmHg 67%
    13:00 +6°C° 0 mm 8 mps 751 mmHg 63%
    14:00 +7°C° 0 mm 8 mps 750 mmHg 58%
    15:00 +6°C° 0 mm 8 mps 750 mmHg 58%
    16:00 +5°C° 0 mm 8 mps 750 mmHg 57%
    17:00 +5°C° 0 mm 8 mps 749 mmHg 56%
    18:00 +4°C° 0 mm 7 mps 750 mmHg 60%
    19:00 +3°C° 0 mm 6 mps 750 mmHg 64%
    20:00 +2°C° 0 mm 5 mps 751 mmHg 68%
    21:00 +2°C° 0 mm 5 mps 751 mmHg 71%
    22:00 +1°C° 0 mm 4 mps 751 mmHg 74%
    23:00 0°C° 0 mm 4 mps 751 mmHg 77%

    Day after tomorrow, 3 April, Friday

    Time Temperature Precipitation Wind Pressure Humidity
    00:00 +1°C° 0 mm 3 mps 751 mmHg 77%
    01:00 +1°C° 0 mm 3 mps 751 mmHg 77%
    02:00 +1°C° 0 mm 3 mps 751 mmHg 77%
    03:00 0°C° 0 mm 3 mps 751 mmHg 75%
    04:00 0°C° 0 mm 3 mps 751 mmHg 73%
    05:00 0°C° 0 mm 3 mps 751 mmHg 72%
    06:00 +2°C° 0 mm 2 mps 751 mmHg 65%
    07:00 +4°C° 0 mm 2 mps 751 mmHg 59%
    08:00 +5°C° 0 mm 2 mps 751 mmHg 53%
    09:00 +8°C° 0 mm 1 mps 751 mmHg 48%
    10:00 +10°C° 0 mm 1 mps 751 mmHg 43%
    11:00 +12°C° 0 mm 1 mps 751 mmHg 38%
    12:00 +12°C° 0 mm 1 mps 751 mmHg 39%
    13:00 +12°C° 0 mm 2 mps 751 mmHg 40%
    14:00 +12°C° 0 mm 3 mps 751 mmHg 41%
    15:00 +11°C° 0 mm 3 mps 751 mmHg 45%
    16:00 +11°C° 0 mm 3 mps 751 mmHg 48%
    17:00 +10°C° 0 mm 3 mps 751 mmHg 51%
    18:00 +8°C° 0 mm 3 mps 751 mmHg 57%
    19:00 +7°C° 0 mm 3 mps 752 mmHg 62%
    20:00 +5°C° 0 mm 3 mps 752 mmHg 67%
    21:00 +4°C° 0 mm 3 mps 752 mmHg 70%
    22:00 +4°C° 0 mm 3 mps 753 mmHg 72%
    23:00 +4°C° 0 mm 3 mps 753 mmHg 75%

    4 April, Saturday

    Time Temperature Precipitation Wind Pressure Humidity
    00:00 +5°C° 0 mm 2 mps 753 mmHg 77%
    01:00 +5°C° 0 mm 2 mps 753 mmHg 79%
    02:00 +5°C° 0 mm 2 mps 753 mmHg 81%
    03:00 +6°C° 0 mm 1 mps 753 mmHg 81%
    04:00 +5°C° 0 mm 1 mps 753 mmHg 81%
    05:00 +5°C° 0 mm 1 mps 753 mmHg 81%
    06:00 +7°C° 0 mm 1 mps 754 mmHg 76%
    07:00 +8°C° 0 mm 1 mps 754 mmHg 72%
    08:00 +10°C° 0 mm 1 mps 754 mmHg 67%
    09:00 +11°C° 0 mm 1 mps 754 mmHg 64%
    10:00 +12°C° 0 mm 1 mps 755 mmHg 61%
    11:00 +14°C° 0 mm 2 mps 755 mmHg 57%
    12:00 +14°C° 0 mm 2 mps 755 mmHg 57%
    13:00 +14°C° 0 mm 2 mps 755 mmHg 57%
    14:00 +13°C° 0 mm 3 mps 755 mmHg 57%
    15:00 +12°C° 0 mm 3 mps 755 mmHg 58%
    16:00 +12°C° 0 mm 3 mps 755 mmHg 60%
    17:00 +11°C° 0 mm 3 mps 755 mmHg 61%
    18:00 +10°C° 0 mm 2 mps 756 mmHg 67%
    19:00 +8°C° 0 mm 2 mps 756 mmHg 72%
    20:00 +7°C° 0 mm 2 mps 757 mmHg 77%
    21:00 +6°C° 0 mm 2 mps 757 mmHg 77%
    22:00 +6°C° 0 mm 2 mps 757 mmHg 77%
    23:00 +6°C° 0 mm 2 mps 758 mmHg 77%

    5 April, Sunday

    Time Temperature Precipitation Wind Pressure Humidity
    00:00 +5°C° 0 mm 2 mps 758 mmHg 78%
    01:00 +4°C° 0 mm 3 mps 758 mmHg 79%
    02:00 +4°C° 0 mm 3 mps 758 mmHg 79%
    03:00 +4°C° 0 mm 3 mps 758 mmHg 78%
    04:00 +3°C° 0 mm 4 mps 758 mmHg 77%
    05:00 +3°C° 0 mm 4 mps 758 mmHg 75%
    06:00 +5°C° 0 mm 5 mps 758 mmHg 70%
    07:00 +5°C° 0 mm 6 mps 759 mmHg 65%
    08:00 +8°C° 0 mm 7 mps 759 mmHg 60%
    09:00 +9°C° 0 mm 8 mps 759 mmHg 57%
    10:00 +10°C° 0 mm 9 mps 759 mmHg 54%
    11:00 +11°C° 0 mm 9 mps 759 mmHg 52%
    12:00 +12°C° 0 mm 10 mps 759 mmHg 52%
    13:00 +12°C° 0 mm 11 mps 759 mmHg 53%
    14:00 +12°C° 0 mm 11 mps 758 mmHg 53%
    15:00 +10°C° 0 mm 12 mps 758 mmHg 56%
    16:00 +9°C° 0 mm 12 mps 758 mmHg 58%
    17:00 +9°C° 0 mm 12 mps 757 mmHg 61%
    18:00 +8°C° 0 mm 12 mps 758 mmHg 61%
    19:00 +7°C° 0 mm 12 mps 758 mmHg 60%
    20:00 +7°C° 0 mm 12 mps 758 mmHg 60%
    21:00 +6°C° 0 mm 11 mps 758 mmHg 63%
    22:00 +6°C° 0 mm 11 mps 758 mmHg 65%
    23:00 +6°C° 0 mm 11 mps 758 mmHg 68%

    6 April, Monday

    Time Temperature Precipitation Wind Pressure Humidity
    00:00 +5°C° 0 mm 12 mps 758 mmHg 68%
    01:00 +5°C° 0 mm 13 mps 758 mmHg 69%
    02:00 +5°C° 0 mm 13 mps 758 mmHg 69%
    03:00 +5°C° 0 mm 13 mps 758 mmHg 68%
    04:00 +4°C° 0 mm 13 mps 758 mmHg 67%
    05:00 +4°C° 0 mm 13 mps 758 mmHg 66%
    06:00 +4°C° 0 mm 14 mps 759 mmHg 64%
    07:00 +4°C° 0 mm 14 mps 759 mmHg 62%
    08:00 +4°C° 0 mm 14 mps 760 mmHg 61%
    09:00 +5°C° 0 mm 14 mps 760 mmHg 59%
    10:00 +5°C° 0 mm 14 mps 760 mmHg 57%
    11:00 +6°C° 0 mm 14 mps 761 mmHg 56%
    12:00 +6°C° 0 mm 14 mps 761 mmHg 56%
    13:00 +6°C° 0 mm 14 mps 761 mmHg 56%
    14:00 +6°C° 0 mm 14 mps 761 mmHg 55%
    15:00 +5°C° 0 mm 13 mps 761 mmHg 57%
    16:00 +5°C° 0 mm 13 mps 762 mmHg 58%
    17:00 +4°C° 0 mm 13 mps 762 mmHg 60%
    18:00 +4°C° 0 mm 13 mps 762 mmHg 60%
    19:00 +3°C° 0 mm 12 mps 762 mmHg 61%
    20:00 +3°C° 0 mm 12 mps 762 mmHg 62%
    21:00 +3°C° 0 mm 12 mps 763 mmHg 61%
    22:00 +3°C° 0 mm 12 mps 763 mmHg 61%
    23:00 +3°C° 0 mm 12 mps 763 mmHg 60%
    Show more